Wind_Speed
24 23 22 20 14 8 6 4 3 3 2 2 2 2 2 2 3 4 5 5 7 8 8 9 9 8 7 7 7 6 6 6 5 5 4 3 3 3 3 2 2 2
25 25 25 23 16 9 6 4 2 1 1 3 4 5 5 5 5 5 6 6 7 8 9 10 10 10 10 10 10 10 10 10 10 9 9 9 9 8 8 8 7 7
25 25 26 26 18 10 7 6 5 4 4 6 7 8 8 8 8 8 8 10 10 11 12 12 13 13 12 12 12 12 12 12 12 12 12 12 12 11 11 10 10 9
24 24 26 27 22 13 9 8 7 6 6 7 8 9 10 10 10 10 10 11 12 12 13 12 12 12 11 11 11 10 11 10 10 10 10 10 10 10 10 9 9 8
24 25 26 28 24 15 12 10 9 8 7 8 7 8 9 9 10 10 10 10 11 11 11 11 10 10 9 9 9 8 8 8 8 8 8 8 7 7 6 6 6 6
25 29 30 29 22 14 14 13 11 10 9 9 8 8 8 8 8 9 8 8 8 8 8 8 7 7 6 6 5 5 5 5 4 4 4 4 3 3 3 3 3 3
23 31 34 31 22 16 16 15 15 13 11 11 10 9 8 7 7 8 7 7 7 6 5 5 4 4 3 2 2 1 1 1 1 1 1 1 2 3 3 4 5 5
20 28 33 31 24 19 18 17 19 17 15 14 12 11 10 9 8 7 7 7 7 6 6 6 5 5 6 6 6 6 6 6 6 6 6 6 6 6 7 8 8 8
17 22 29 30 27 23 21 21 23 21 19 18 15 14 12 10 9 9 9 9 8 8 8 8 9 9 9 10 10 10 11 12 12 12 11 11 10 10 10 10 10 11
17 20 26 29 29 26 25 27 26 25 24 22 20 18 16 13 12 12 11 10 9 9 9 9 10 10 10 11 11 12 13 13 14 15 15 15 15 14 13 13 13 13
18 21 25 28 28 27 29 32 30 28 27 25 23 21 20 19 19 17 16 14 12 10 9 10 10 10 10 10 12 13 14 15 15 16 17 18 18 18 17 17 16 16
18 21 24 27 29 30 34 37 35 33 32 30 27 24 23 22 21 21 20 17 15 13 13 13 12 12 12 13 14 15 16 18 19 20 21 22 22 22 21 19 18 18
19 21 23 26 30 34 38 39 37 35 35 34 31 28 27 25 22 20 18 14 13 15 17 15 14 15 16 17 20 20 20 22 24 25 26 25 25 24 23 22 20 19
20 22 25 28 30 34 37 37 37 36 35 34 32 30 30 26 21 19 18 17 16 17 18 16 15 17 19 20 22 23 24 28 30 30 29 28 27 26 25 23 20 19
19 22 27 30 29 32 36 36 35 36 36 34 31 28 26 24 21 19 18 20 20 20 21 19 17 17 20 23 23 24 26 28 30 31 30 28 28 27 26 24 21 18
18 19 22 23 24 26 28 27 24 25 28 29 27 22 21 22 21 19 20 21 21 20 20 20 17 15 18 22 23 23 24 22 22 24 26 28 28 29 27 25 22 21
17 17 17 17 17 16 16 15 14 13 15 19 19 19 21 22 19 18 20 21 19 18 17 17 16 15 17 19 18 18 17 16 15 16 19 24 26 28 29 28 27 27
16 16 15 15 13 11 11 11 10 10 11 13 15 18 22 22 17 16 18 18 17 17 15 13 13 13 15 15 15 15 15 15 16 16 17 20 22 25 27 28 30 30
17 16 16 15 14 12 12 11 11 11 11 12 13 14 16 17 16 15 15 15 15 15 13 11 12 13 15 15 16 17 18 19 19 19 20 21 23 24 26 27 28 28
17 17 16 16 15 14 13 13 12 12 12 12 13 13 14 15 15 15 15 14 13 12 12 13 14 15 17 18 19 20 22 23 23 23 24 25 25 26 27 27 27 28
19 19 18 17 16 15 14 14 14 14 15 15 15 15 16 16 16 16 16 15 15 14 15 16 17 19 21 22 23 24 25 26 26 27 27 27 27 28 28 28 28 28
21 20 20 19 18 17 16 16 16 17 17 18 18 18 19 19 19 19 19 19 19 19 19 19 20 21 22 23 23 24 25 25 26 27 27 28 28 28 28 28 28 28
22 22 21 20 20 19 18 18 18 18 18 20 21 22 22 23 23 23 23 22 22 21 21 21 22 22 23 23 23 23 24 25 26 27 28 27 27 27 27 27 27 27
24 24 24 22 21 20 20 20 20 20 20 21 22 23 24 24 24 24 23 23 23 23 23 23 23 24 24 24 24 24 25 25 26 27 27 26 26 26 26 26 26 26
25 25 24 23 22 21 21 21 22 21 21 22 23 23 23 23 23 23 23 23 23 23 23 24 24 25 25 25 25 26 27 27 28 28 28 28 28 27 27 27 28 28
25 25 24 23 23 23 23 23 23 23 23 24 24 24 25 24 24 24 24 23 23 22 23 23 24 24 25 26 27 28 29 29 30 30 30 31 31 30 30 30 30 30
Wind_Direction
251 250 253 250 239 234 254 270 295 316 343 26 64 104 142 166 176 176 170 171 172 169 169 171 172 173 173 171 171 170 170 171 171 169 169 175 180 180 183 186 186 186
247 246 249 246 235 227 234 227 203 201 114 102 111 115 123 134 138 144 146 145 145 145 144 144 143 141 138 135 132 129 129 128 125 121 117 113 111 108 107 105 105 107
241 240 244 243 235 219 210 197 183 181 149 126 122 120 121 124 127 132 133 131 131 131 130 131 130 128 126 123 121 119 117 116 114 111 106 103 101 99 97 95 93 93
236 233 237 239 234 214 192 186 187 185 165 147 135 126 123 121 122 125 127 129 130 129 130 129 127 125 122 119 117 115 114 112 110 107 103 99 96 94 93 90 88 85
234 228 228 233 235 218 188 179 186 192 183 168 154 141 134 129 126 126 128 133 135 137 137 135 132 129 126 124 122 121 120 117 114 109 103 98 92 86 83 77 72 69
231 223 227 235 236 216 189 180 184 196 196 182 172 163 154 147 143 140 140 144 146 148 147 145 144 142 140 139 135 132 129 124 122 116 103 92 76 61 49 31 20 14
234 220 226 237 236 215 197 188 186 195 201 197 189 182 175 170 166 164 165 168 170 174 177 179 182 184 187 190 201 214 210 238 261 274 287 299 312 308 307 313 313 312
243 222 224 233 235 225 211 199 192 194 203 207 203 196 191 190 192 192 194 200 207 213 219 229 240 250 263 273 278 283 284 287 287 286 285 285 287 288 290 292 293 295
251 228 224 230 234 231 221 208 199 196 203 210 210 207 204 202 206 208 210 216 223 232 238 248 258 266 276 282 287 292 294 294 293 290 287 285 283 282 284 285 286 289
254 235 228 230 233 231 221 211 203 200 205 208 207 206 204 205 212 215 217 220 225 233 240 243 249 257 265 273 278 282 286 289 291 291 288 286 283 280 279 280 282 285
255 240 232 230 235 234 222 214 209 205 209 212 209 207 206 206 209 212 212 213 214 220 233 239 242 250 259 267 272 274 278 279 280 282 283 283 282 280 277 278 279 281
254 245 237 234 237 235 223 217 213 210 211 214 213 213 216 216 216 217 216 215 212 208 216 228 239 249 253 257 262 266 272 275 274 273 274 275 276 275 273 273 275 278
248 248 246 241 239 237 230 223 220 218 218 218 215 214 219 221 224 232 239 243 235 221 217 220 230 245 249 250 254 256 260 265 265 265 266 266 266 266 266 267 268 271
242 246 248 244 241 244 243 236 233 232 229 225 221 220 223 224 226 237 249 253 247 239 235 229 226 239 251 255 256 256 256 257 257 258 259 260 259 258 258 260 260 263
240 242 245 246 247 253 254 250 247 244 237 231 229 228 232 233 230 234 245 249 252 255 257 252 239 239 253 259 259 259 258 258 258 257 256 255 253 250 248 248 249 255
239 239 243 247 249 253 253 251 252 252 244 238 236 235 236 235 233 237 246 251 256 258 259 259 254 248 252 255 256 256 258 260 262 259 253 248 246 245 246 247 249 257
236 235 237 243 244 241 239 239 244 247 239 232 231 230 229 228 228 239 248 251 252 252 253 258 260 254 250 250 252 254 258 262 265 264 258 252 250 251 255 257 258 262
231 231 232 236 237 229 221 223 227 226 222 219 223 231 235 232 228 236 246 248 247 249 251 251 246 240 238 241 246 253 259 262 264 265 264 262 262 262 263 263 263 265
229 229 227 225 223 215 209 210 214 217 221 222 226 236 244 244 241 241 243 242 242 244 245 240 237 238 243 249 256 261 264 266 266 266 266 267 268 268 268 268 268 270
226 226 223 218 212 209 210 216 222 226 229 231 233 238 243 245 246 245 243 243 245 246 246 246 249 253 258 263 267 268 269 270 270 272 273 274 273 273 274 274 274 275
222 219 215 210 207 212 221 228 233 234 235 236 236 236 236 237 238 237 238 242 245 247 249 252 255 259 262 265 267 268 270 271 272 273 274 274 273 274 275 276 278 279
221 216 212 211 214 222 230 233 234 234 234 233 232 231 229 228 228 230 234 238 242 245 247 250 253 256 259 262 264 267 269 270 271 271 271 272 272 273 275 277 279 281
225 222 219 221 226 231 234 233 231 229 228 227 227 226 226 226 228 231 234 237 239 241 243 245 250 254 258 262 265 266 267 268 270 271 272 273 274 274 275 277 278 280
231 230 231 232 233 232 231 228 226 226 226 226 225 225 225 226 228 231 233 237 239 243 247 251 255 260 263 266 267 268 268 268 270 271 273 274 275 275 276 276 277 279
236 234 235 233 231 229 227 226 226 225 225 225 225 226 227 229 231 234 238 243 247 252 256 260 264 267 269 269 268 268 269 269 270 272 274 275 276 277 278 279 279 279
240 239 238 235 231 228 225 226 228 228 227 227 228 229 230 233 236 239 242 246 250 255 259 263 267 269 271 272 271 270 270 270 271 273 274 276 278 279 280 280 280 280
Height
3124 3124 3125 3126 3126 3126 3125 3125 3124 3124 3123 3123 3122 3122 3122 3123 3123 3123 3123 3124 3124 3124 3124 3124 3125 3125 3126 3126 3127 3127 3128 3128 3129 3129 3130 3130 3131 3131 3132 3132 3133 3133
3120 3121 3123 3124 3124 3125 3125 3124 3124 3124 3124 3123 3123 3123 3123 3124 3124 3124 3124 3125 3125 3125 3125 3125 3125 3126 3127 3128 3128 3128 3129 3129 3130 3130 3131 3131 3132 3132 3133 3133 3133 3134
3118 3119 3121 3122 3123 3124 3124 3124 3124 3125 3124 3124 3124 3124 3124 3125 3125 3125 3126 3126 3127 3127 3127 3127 3127 3127 3128 3129 3130 3130 3130 3131 3131 3131 3132 3132 3133 3133 3134 3134 3134 3134
3116 3118 3120 3120 3121 3123 3123 3124 3124 3125 3125 3125 3125 3125 3125 3126 3126 3127 3128 3128 3129 3129 3129 3129 3129 3129 3130 3131 3131 3132 3132 3132 3133 3133 3133 3134 3134 3134 3135 3135 3135 3135
3114 3116 3118 3118 3120 3122 3122 3123 3124 3125 3125 3125 3126 3126 3126 3127 3127 3128 3129 3130 3130 3131 3131 3131 3131 3131 3131 3132 3133 3133 3133 3134 3134 3134 3134 3135 3135 3135 3135 3135 3136 3136
3112 3114 3115 3117 3120 3121 3121 3122 3123 3124 3125 3125 3126 3126 3126 3127 3128 3129 3130 3131 3132 3132 3132 3133 3133 3133 3133 3133 3134 3134 3134 3135 3135 3135 3135 3135 3136 3136 3136 3136 3136 3136
3110 3110 3112 3116 3120 3120 3120 3121 3122 3123 3125 3125 3125 3126 3126 3127 3128 3128 3130 3131 3132 3133 3133 3134 3134 3134 3134 3134 3134 3135 3135 3135 3135 3135 3136 3136 3136 3136 3136 3136 3135 3135
3107 3108 3110 3114 3118 3118 3118 3119 3120 3122 3124 3124 3125 3125 3125 3126 3127 3128 3129 3130 3131 3132 3133 3133 3134 3134 3134 3135 3135 3135 3135 3135 3135 3135 3135 3135 3135 3135 3135 3135 3135 3134
3105 3106 3108 3112 3115 3116 3117 3118 3119 3120 3122 3123 3124 3124 3125 3125 3126 3127 3128 3128 3129 3130 3131 3132 3133 3133 3134 3134 3134 3134 3134 3134 3134 3134 3134 3134 3134 3134 3134 3134 3134 3133
3104 3105 3107 3110 3113 3114 3116 3117 3117 3118 3119 3121 3122 3122 3123 3124 3125 3126 3127 3127 3128 3129 3129 3130 3131 3131 3132 3132 3133 3133 3133 3133 3133 3133 3133 3133 3133 3133 3132 3132 3132 3132
3103 3105 3107 3109 3111 3112 3114 3115 3116 3116 3117 3119 3120 3120 3120 3121 3121 3122 3123 3124 3125 3126 3127 3128 3129 3129 3130 3131 3131 3131 3132 3132 3131 3131 3131 3131 3131 3131 3130 3130 3130 3130
3102 3103 3105 3106 3108 3109 3110 3111 3112 3113 3113 3114 3116 3117 3118 3119 3120 3120 3120 3121 3122 3123 3124 3125 3127 3128 3128 3129 3129 3129 3130 3130 3130 3129 3129 3129 3129 3129 3128 3128 3128 3128
3101 3102 3103 3104 3105 3105 3105 3107 3109 3110 3110 3110 3110 3112 3113 3115 3118 3120 3120 3121 3122 3122 3121 3121 3123 3125 3126 3126 3127 3127 3127 3127 3127 3127 3127 3127 3126 3126 3126 3126 3126 3126
3099 3101 3101 3101 3102 3103 3103 3105 3107 3108 3109 3110 3109 3109 3110 3112 3114 3117 3118 3119 3120 3121 3119 3117 3118 3121 3123 3124 3124 3124 3124 3123 3124 3124 3123 3124 3124 3124 3124 3124 3124 3124
3097 3098 3099 3099 3101 3101 3101 3103 3104 3104 3105 3107 3108 3109 3111 3112 3113 3114 3115 3116 3117 3117 3117 3116 3116 3117 3120 3121 3120 3120 3120 3120 3120 3120 3120 3121 3121 3121 3121 3121 3121 3121
3095 3095 3095 3097 3098 3098 3098 3099 3100 3100 3101 3103 3105 3107 3108 3109 3110 3111 3112 3112 3113 3114 3115 3116 3115 3114 3116 3117 3117 3117 3117 3117 3117 3117 3117 3118 3118 3118 3118 3118 3118 3118
3093 3093 3093 3094 3094 3095 3095 3096 3097 3098 3099 3100 3102 3103 3104 3105 3107 3108 3108 3108 3109 3111 3113 3113 3113 3112 3113 3114 3114 3114 3115 3115 3115 3115 3115 3115 3116 3116 3116 3116 3116 3116
3090 3091 3091 3091 3091 3092 3093 3093 3094 3096 3097 3098 3100 3100 3101 3103 3104 3105 3105 3106 3107 3108 3110 3110 3110 3111 3111 3112 3112 3112 3112 3112 3112 3113 3113 3113 3113 3113 3113 3113 3113 3113
3088 3088 3089 3089 3089 3090 3091 3092 3093 3094 3095 3096 3097 3098 3099 3101 3102 3103 3103 3104 3104 3105 3106 3107 3108 3108 3109 3109 3109 3109 3109 3109 3110 3110 3110 3110 3110 3110 3110 3110 3109 3109
3086 3086 3087 3087 3088 3088 3089 3090 3091 3092 3093 3094 3095 3096 3097 3098 3099 3100 3100 3101 3102 3103 3104 3105 3106 3106 3106 3106 3106 3106 3106 3106 3106 3107 3107 3107 3107 3106 3106 3105 3105 3105
3084 3085 3085 3086 3086 3087 3088 3089 3090 3090 3091 3092 3093 3094 3095 3096 3097 3097 3098 3099 3100 3101 3102 3103 3103 3103 3103 3103 3103 3103 3103 3103 3103 3103 3103 3103 3103 3102 3102 3101 3101 3100
3082 3083 3084 3084 3085 3086 3086 3087 3088 3089 3090 3090 3091 3092 3093 3094 3095 3096 3097 3098 3099 3099 3100 3100 3100 3100 3101 3101 3101 3100 3100 3100 3099 3099 3099 3099 3099 3099 3098 3098 3097 3096
3079 3080 3081 3082 3083 3083 3084 3085 3086 3087 3088 3088 3089 3090 3091 3092 3093 3094 3095 3096 3096 3097 3097 3097 3098 3097 3097 3097 3097 3097 3097 3096 3096 3095 3095 3095 3095 3095 3095 3094 3094 3093
3075 3077 3078 3079 3080 3081 3082 3082 3083 3084 3085 3086 3087 3088 3089 3089 3090 3091 3092 3092 3093 3093 3094 3094 3094 3094 3094 3094 3094 3094 3093 3093 3092 3092 3091 3091 3091 3091 3091 3091 3090 3090
3072 3074 3075 3075 3077 3078 3079 3079 3080 3081 3082 3083 3084 3084 3085 3086 3087 3087 3088 3089 3089 3090 3090 3090 3090 3091 3090 3090 3090 3090 3089 3089 3089 3088 3088 3088 3087 3087 3087 3087 3086 3086
3069 3070 3071 3072 3073 3074 3075 3076 3077 3078 3079 3079 3080 3081 3082 3082 3083 3084 3084 3085 3085 3086 3086 3086 3087 3087 3087 3086 3086 3086 3085 3085 3084 3084 3084 3083 3083 3083 3083 3082 3082 3081